星链-30950 (STARLINK-30950 )

导读 | 豆包AI

STARLINK-30950是美国SpaceX星链卫星互联网项目中的一颗卫星,于2023年11月28日发射升空。星链计划旨在搭建全球覆盖的卫星互联网星座,为偏远地区、海陆空移动载体提供低延迟宽带服务,该卫星入轨后将参与星链网络组网,补充星座通信覆盖能力,进一步完善全球卫星互联网服务布局。

基本信息
目录编号:
58440
目录名称:
STARLINK-30950
国际标识:
2023-183D
轨道中心:
EARTH
卫星名称:
星链-30950
卫星全名:
星链-30950 (STARLINK-30950 )
卫星状态:
在轨 (已飞行884 天)
发射日期:
2023-11-28 UTC
国别 :
美国 (US)
星等 :
--
轨道信息
数据来源 国际轨道数据
星历时间: 2026-04-30T05:22:23+0800
22小时前
查看轨道信息
半长轴: 6861.178km
偏心率: 0.0001311
轨道倾角: 43.003°
近地点辐角 272.457°
升交点赤经 275.974°
平近点角 87.613°
近地点: 482.141km
远地点: 483.941km
周期: 94.267分钟
每日圈数: 15.27583
详细信息
固有亮度:
5
最大亮度:
0.3
卫星平台:
Starlink v2.0 mini
覆盖范围:
全球
运营商:
太空探索技术公司
运营商所在国:
美国
制造商(研发单位):
太空探索技术公司
制造商所在国:
美国
使用方式:
暂无
卫星简介
星链(Starlink)计划是由太空探索技术公司(SpaceX)提出的一个巨型低轨卫星互联网星座项目,计划在2019年至2024年间在太空搭建由约1.2万颗卫星组成的“星链”网络,其中1584颗将部署在地球上空550千米处的近地轨道,并从2020年开始工作。该卫星仍在工作。
2D轨道图
3D轨道图
轨道高度分析图
轨道倾角分析图
轨道综合分析图
查看轨道综合分析图